LAOSAT 1

Last updated on Thu Jul 03 2025 00:02:47 GMT+0000 (Coordinated Universal Time)

1 41034U 15067A 25183.63080250 -.00000335 00000+0 00000+0 0 9994 2 41034 0.0489 236.1182 0002953 184.3402 216.0376 1.00273061 35350
UTC large
Height (km)
Speed (km/s)
/
Latitude / Longitude
Inclination (degrees)
Orbital Period (minutes)
Azimuth
Elevation
Range (km)
Doppler Factor

Next 0 passes for location: London (51.5072 / 0.1276)

Sorry there are no passes over London.